Time,TemperatureF,DewpointF,PressureIn,WindDirection,WindDirectionDegrees,WindSpeedMPH,WindSpeedGustMPH,Humidity,HourlyPrecipIn,Conditions,Clouds,dailyrainin,SolarRadiationWatts/m^2,SoftwareType,DateUTC
2013-05-04 00:02:00,49.0,48.0,-100.00,SSE,159,13.0,31.0,97,0.00,,,0.17,0.000000,,2013-05-04 04:02:00,
2013-05-04 00:33:00,49.0,47.0,-100.00,SSE,153,12.0,38.0,94,0.00,,,0.17,0.000000,,2013-05-04 04:33:00,
2013-05-04 00:43:00,49.0,47.0,-100.00,SSE,153,12.0,38.0,94,0.00,,,0.17,0.000000,,2013-05-04 04:43:00,
2013-05-04 00:53:00,49.0,47.0,-100.00,SSE,153,12.0,38.0,94,0.00,,,0.17,0.000000,,2013-05-04 04:53:00,
2013-05-04 01:02:00,49.0,47.0,-100.00,SSE,153,12.0,38.0,94,0.00,,,0.17,0.000000,,2013-05-04 05:02:00,
2013-05-04 01:32:00,49.0,48.0,-100.00,SE,136,9.0,32.0,96,0.00,,,0.17,0.000000,,2013-05-04 05:32:00,
2013-05-04 01:43:00,49.0,48.0,-100.00,SE,136,9.0,32.0,96,0.00,,,0.17,0.000000,,2013-05-04 05:43:00,
2013-05-04 01:52:00,49.0,48.0,-100.00,SE,136,9.0,32.0,96,0.00,,,0.17,0.000000,,2013-05-04 05:52:00,
2013-05-04 02:01:00,49.0,48.0,-100.00,SE,136,9.0,32.0,96,0.00,,,0.17,0.000000,,2013-05-04 06:01:00,
2013-05-04 02:32:00,49.0,48.0,-100.00,SE,143,13.0,31.0,95,0.00,,,0.14,0.000000,,2013-05-04 06:32:00,
2013-05-04 02:42:00,49.0,48.0,-100.00,SE,143,13.0,31.0,95,0.00,,,0.14,0.000000,,2013-05-04 06:42:00,
2013-05-04 02:52:00,49.0,48.0,-100.00,SE,143,13.0,31.0,95,0.00,,,0.14,0.000000,,2013-05-04 06:52:00,
2013-05-04 03:01:00,49.0,48.0,-100.00,SE,143,13.0,31.0,95,0.00,,,0.14,0.000000,,2013-05-04 07:01:00,
2013-05-04 03:32:00,47.0,45.0,-100.00,SSE,153,11.0,33.0,92,0.00,,,0.13,0.000000,,2013-05-04 07:32:00,
2013-05-04 03:42:00,47.0,45.0,-100.00,SSE,153,11.0,33.0,92,0.00,,,0.13,0.000000,,2013-05-04 07:42:00,
2013-05-04 03:52:00,47.0,45.0,-100.00,SSE,153,11.0,33.0,92,0.00,,,0.13,0.000000,,2013-05-04 07:52:00,
2013-05-04 04:02:00,47.0,45.0,-100.00,SSE,153,11.0,33.0,92,0.00,,,0.13,0.000000,,2013-05-04 08:02:00,
2013-05-04 04:32:00,46.0,44.0,-100.00,SSE,156,12.0,29.0,93,0.02,,,0.13,0.000000,,2013-05-04 08:32:00,
2013-05-04 04:42:00,46.0,44.0,-100.00,SSE,156,12.0,29.0,93,0.02,,,0.13,0.000000,,2013-05-04 08:42:00,
2013-05-04 04:52:00,46.0,44.0,-100.00,SSE,156,12.0,29.0,93,0.02,,,0.13,0.000000,,2013-05-04 08:52:00,
2013-05-04 05:02:00,46.0,44.0,-100.00,SSE,156,12.0,29.0,93,0.02,,,0.13,0.000000,,2013-05-04 09:02:00,
2013-05-04 05:33:00,45.0,42.0,-100.00,SSE,149,12.0,28.0,90,0.01,,,0.14,0.000000,,2013-05-04 09:33:00,
2013-05-04 05:42:00,45.0,42.0,-100.00,SSE,149,12.0,28.0,90,0.01,,,0.14,0.000000,,2013-05-04 09:42:00,
2013-05-04 05:53:00,45.0,42.0,-100.00,SSE,149,12.0,28.0,90,0.01,,,0.14,0.000000,,2013-05-04 09:53:00,
2013-05-04 06:03:00,45.0,42.0,-100.00,SSE,149,12.0,28.0,90,0.01,,,0.14,0.000000,,2013-05-04 10:03:00,
2013-05-04 06:33:00,44.0,39.0,-100.00,SSE,150,10.0,22.0,84,0.00,,,0.14,0.000000,,2013-05-04 10:33:00,
2013-05-04 06:42:00,44.0,39.0,-100.00,SSE,150,10.0,22.0,84,0.00,,,0.14,0.000000,,2013-05-04 10:42:00,
2013-05-04 06:53:00,44.0,39.0,-100.00,SSE,150,10.0,22.0,84,0.00,,,0.14,0.000000,,2013-05-04 10:53:00,
2013-05-04 07:02:00,44.0,39.0,-100.00,SSE,150,10.0,22.0,84,0.00,,,0.14,0.000000,,2013-05-04 11:02:00,
2013-05-04 07:32:00,43.0,41.0,-100.00,ESE,116,9.0,28.0,93,0.00,,,0.14,0.000000,,2013-05-04 11:32:00,
2013-05-04 07:46:00,43.0,41.0,-100.00,ESE,116,9.0,28.0,93,0.00,,,0.14,0.000000,,2013-05-04 11:46:00,
2013-05-04 08:03:00,43.0,41.0,-100.00,ESE,116,9.0,28.0,93,0.00,,,0.14,0.000000,,2013-05-04 12:03:00,
2013-05-04 09:32:00,44.0,43.0,-100.00,SE,146,8.0,31.0,97,-99.99,,,0.17,59.000000,,2013-05-04 13:32:00,
2013-05-04 09:42:00,44.0,43.0,-100.00,SE,146,8.0,31.0,97,-99.99,,,0.17,59.000000,,2013-05-04 13:42:00,
2013-05-04 09:53:00,44.0,43.0,-100.00,SE,146,8.0,31.0,97,-99.99,,,0.17,59.000000,,2013-05-04 13:53:00,
2013-05-04 10:02:00,44.0,43.0,-100.00,SE,146,8.0,31.0,97,-99.99,,,0.17,59.000000,,2013-05-04 14:02:00,
2013-05-04 10:32:00,45.0,44.0,-100.00,SE,134,10.0,26.0,95,0.09,,,0.26,175.000000,,2013-05-04 14:32:00,
2013-05-04 10:42:00,45.0,44.0,-100.00,SE,134,10.0,26.0,95,0.09,,,0.26,175.000000,,2013-05-04 14:42:00,
2013-05-04 10:52:00,45.0,44.0,-100.00,SE,134,10.0,26.0,95,0.09,,,0.26,175.000000,,2013-05-04 14:52:00,
2013-05-04 11:02:00,45.0,44.0,-100.00,SE,134,10.0,26.0,95,0.09,,,0.26,175.000000,,2013-05-04 15:02:00,
2013-05-04 11:33:00,46.0,44.0,-100.00,SE,135,11.0,26.0,93,0.10,,,0.36,232.000000,,2013-05-04 15:33:00,
2013-05-04 11:43:00,46.0,44.0,-100.00,SE,135,11.0,26.0,93,0.10,,,0.36,232.000000,,2013-05-04 15:43:00,
2013-05-04 11:53:00,46.0,44.0,-100.00,SE,135,11.0,26.0,93,0.10,,,0.36,232.000000,,2013-05-04 15:53:00,
2013-05-04 12:03:00,46.0,44.0,-100.00,SE,135,11.0,26.0,93,0.10,,,0.36,232.000000,,2013-05-04 16:03:00,
2013-05-04 12:33:00,46.0,45.0,-100.00,SE,139,13.0,32.0,95,0.03,,,0.39,265.000000,,2013-05-04 16:33:00,
2013-05-04 12:42:00,46.0,45.0,-100.00,SE,139,13.0,32.0,95,0.03,,,0.39,265.000000,,2013-05-04 16:42:00,
2013-05-04 12:52:00,46.0,45.0,-100.00,SE,139,13.0,32.0,95,0.03,,,0.39,265.000000,,2013-05-04 16:52:00,
2013-05-04 13:02:00,46.0,45.0,-100.00,SE,139,13.0,32.0,95,0.03,,,0.39,265.000000,,2013-05-04 17:02:00,
2013-05-04 13:33:00,47.0,46.0,-100.00,ESE,122,12.0,31.0,96,0.06,,,0.44,190.000000,,2013-05-04 17:33:00,
2013-05-04 13:42:00,47.0,46.0,-100.00,ESE,122,12.0,31.0,96,0.06,,,0.44,190.000000,,2013-05-04 17:42:00,
2013-05-04 13:52:00,47.0,46.0,-100.00,ESE,122,12.0,31.0,96,0.06,,,0.44,190.000000,,2013-05-04 17:52:00,
2013-05-04 14:01:00,47.0,46.0,-100.00,ESE,122,12.0,31.0,96,0.06,,,0.44,190.000000,,2013-05-04 18:01:00,
2013-05-04 14:32:00,47.0,45.0,-100.00,SE,134,10.0,24.0,94,0.10,,,0.53,297.000000,,2013-05-04 18:32:00,
2013-05-04 14:42:00,47.0,45.0,-100.00,SE,134,10.0,24.0,94,0.10,,,0.53,297.000000,,2013-05-04 18:42:00,
2013-05-04 14:52:00,47.0,45.0,-100.00,SE,134,10.0,24.0,94,0.10,,,0.53,297.000000,,2013-05-04 18:52:00,
2013-05-04 15:02:00,47.0,45.0,-100.00,SE,134,10.0,24.0,94,0.10,,,0.53,297.000000,,2013-05-04 19:02:00,
2013-05-04 15:32:00,47.0,46.0,-100.00,SE,133,11.0,37.0,95,0.10,,,0.63,214.000000,,2013-05-04 19:32:00,
2013-05-04 15:42:00,47.0,46.0,-100.00,SE,133,11.0,37.0,95,0.10,,,0.63,214.000000,,2013-05-04 19:42:00,
2013-05-04 15:52:00,47.0,46.0,-100.00,SE,133,11.0,37.0,95,0.10,,,0.63,214.000000,,2013-05-04 19:52:00,
2013-05-04 16:02:00,47.0,46.0,-100.00,SE,133,11.0,37.0,95,0.10,,,0.63,214.000000,,2013-05-04 20:02:00,
2013-05-04 16:32:00,47.0,46.0,-100.00,SE,142,7.0,27.0,96,0.08,,,0.69,130.000000,,2013-05-04 20:32:00,
2013-05-04 16:42:00,47.0,46.0,-100.00,SE,142,7.0,27.0,96,0.08,,,0.69,130.000000,,2013-05-04 20:42:00,
2013-05-04 16:52:00,47.0,46.0,-100.00,SE,142,7.0,27.0,96,0.08,,,0.69,130.000000,,2013-05-04 20:52:00,
2013-05-04 17:02:00,47.0,46.0,-100.00,SE,142,7.0,27.0,96,0.08,,,0.69,130.000000,,2013-05-04 21:02:00,
2013-05-04 17:33:00,46.0,45.0,-100.00,ESE,109,6.0,24.0,98,0.10,,,0.78,69.000000,,2013-05-04 21:33:00,
2013-05-04 17:43:00,46.0,45.0,-100.00,ESE,109,6.0,24.0,98,0.10,,,0.78,69.000000,,2013-05-04 21:43:00,
2013-05-04 17:53:00,46.0,45.0,-100.00,ESE,109,6.0,24.0,98,0.10,,,0.78,69.000000,,2013-05-04 21:53:00,
2013-05-04 18:03:00,46.0,45.0,-100.00,ESE,109,6.0,24.0,98,0.10,,,0.78,69.000000,,2013-05-04 22:03:00,
2013-05-04 18:33:00,47.0,46.0,-100.00,ESE,102,7.0,27.0,97,0.25,,,-99.99,22.000000,,2013-05-04 22:33:00,
2013-05-04 18:43:00,47.0,46.0,-100.00,ESE,102,7.0,27.0,97,0.25,,,-99.99,22.000000,,2013-05-04 22:43:00,
2013-05-04 18:52:00,47.0,46.0,-100.00,ESE,102,7.0,27.0,97,0.25,,,-99.99,22.000000,,2013-05-04 22:52:00,
2013-05-04 19:02:00,47.0,46.0,-100.00,ESE,102,7.0,27.0,97,0.25,,,-99.99,22.000000,,2013-05-04 23:02:00,
2013-05-04 19:32:00,48.0,47.0,-100.00,SE,135,8.0,29.0,95,0.27,,,-99.99,16.000000,,2013-05-04 23:32:00,
2013-05-04 19:42:00,48.0,47.0,-100.00,SE,135,8.0,29.0,95,0.27,,,-99.99,16.000000,,2013-05-04 23:42:00,
2013-05-04 19:52:00,48.0,47.0,-100.00,SE,135,8.0,29.0,95,0.27,,,-99.99,16.000000,,2013-05-04 23:52:00,
2013-05-04 20:02:00,48.0,47.0,-100.00,SE,135,8.0,29.0,95,0.27,,,-99.99,16.000000,,2013-05-05 00:02:00,
2013-05-04 20:32:00,47.0,46.0,-100.00,SSE,157,6.0,26.0,95,0.23,,,-99.99,5.000000,,2013-05-05 00:32:00,
2013-05-04 20:42:00,47.0,46.0,-100.00,SSE,157,6.0,26.0,95,0.23,,,-99.99,5.000000,,2013-05-05 00:42:00,
2013-05-04 20:52:00,47.0,46.0,-100.00,SSE,157,6.0,26.0,95,0.23,,,-99.99,5.000000,,2013-05-05 00:52:00,
2013-05-04 21:01:00,47.0,46.0,-100.00,SSE,157,6.0,26.0,95,0.23,,,-99.99,5.000000,,2013-05-05 01:01:00,
2013-05-04 21:32:00,47.0,46.0,-100.00,SE,143,9.0,31.0,96,0.12,,,1.61,1.000000,,2013-05-05 01:32:00,
2013-05-04 21:42:00,47.0,46.0,-100.00,SE,143,9.0,31.0,96,0.12,,,1.61,1.000000,,2013-05-05 01:42:00,
2013-05-04 21:52:00,47.0,46.0,-100.00,SE,143,9.0,31.0,96,0.12,,,1.61,1.000000,,2013-05-05 01:52:00,
2013-05-04 22:02:00,47.0,46.0,-100.00,SE,143,9.0,31.0,96,0.12,,,1.61,1.000000,,2013-05-05 02:02:00,
2013-05-04 22:32:00,47.0,46.0,-100.00,ESE,103,10.0,27.0,98,0.08,,,1.67,0.000000,,2013-05-05 02:32:00,
2013-05-04 22:42:00,47.0,46.0,-100.00,ESE,103,10.0,27.0,98,0.08,,,1.67,0.000000,,2013-05-05 02:42:00,
2013-05-04 22:52:00,47.0,46.0,-100.00,ESE,103,10.0,27.0,98,0.08,,,1.67,0.000000,,2013-05-05 02:52:00,
2013-05-04 23:01:00,47.0,46.0,-100.00,ESE,103,10.0,27.0,98,0.08,,,1.67,0.000000,,2013-05-05 03:01:00,
2013-05-04 23:33:00,47.0,46.0,-100.00,SE,129,7.0,25.0,98,0.10,,,1.77,0.000000,,2013-05-05 03:33:00,
2013-05-04 23:42:00,47.0,46.0,-100.00,SE,129,7.0,25.0,98,0.10,,,1.77,0.000000,,2013-05-05 03:42:00,
2013-05-04 23:53:00,47.0,46.0,-100.00,SE,129,7.0,25.0,98,0.10,,,1.77,0.000000,,2013-05-05 03:53:00,